Location: Sternwarte ZA, Rosenfeld-Brittheim
(48.2889°N, 8.6789°E)
Time: 20:47:26
(UTC+02:00)

ISS - Pass Details

Date: 15 July 2019
Orbit: 409 x 418 km, 51.6° (Epoch: 20 July)

Event Time Altitude Azimuth Distance (km) Brightness Sun altitude
Rises 03:56:03 0° 289° (WNW) 2,347 -0.1 -13.0°
Reaches altitude 10° 03:58:10 10° 293° (WNW) 1,483 -1.1 -12.8°
Maximum altitude 04:01:28 61° 15° (NNE) 470 -3.2 -12.5°
Drops below altitude 10° 04:04:45 10° 97° (E) 1,475 -0.6 -12.1°
Sets 04:06:51 0° 101° (E) 2,334 0.4 -11.9°
